Regional Weather Roundup
Issued by NWS

Home | Current Version | Previous Version | Graphics & Text | Print | Product List | Glossary On
Versions: 1 2 3 4 5 6 7 8 9 10 11 12 13 14 15 16 17 18 19 20 21 22 23 24 25 26 27 28 29 30 31 32 33 34 35 36 37 38 39 40 41 42 43 44 45 46 47 48 49 50
000
ASUS45 KBOU 071710
RWRCO

WEATHER ROUNDUP FOR COLORADO
NATIONAL WEATHER SERVICE DENVER/BOULDER CO
1100 AM MDT TUE JUL 07 2015

NOTE: "FAIR" INDICATES FEW OR NO CLOUDS BELOW 12000 FEET WITH NO
SIGNIFICANT WEATHER AND/OR OBSTRUCTIONS TO VISIBILITY.

COZ001>005-013-030-031-071800-
...NORTHWEST COLORADO...

CITY           SKY/WX    TMP DP  RH WIND       PRES   REMARKS
CRAIG          CLOUDY    63  54  72 CALM      30.21F
HAYDEN         CLOUDY    61  48  63 CALM      30.22F
MEEKER         LGT RAIN  63  52  67 CALM      30.21S
MOUNT WERNER   NOT AVBL
STEAMBOAT SPGS CLOUDY    61  53  76 CALM      30.23F
WALDEN         CLOUDY    55  46  71 SW3       30.30S
$$

COZ006>008-011-071800-
...WEST CENTRAL VALLEYS...

CITY           SKY/WX    TMP DP  RH WIND       PRES   REMARKS
GRAND JUNCTION LGT RAIN  67  59  75 NW12      30.13F
MONTROSE       PTSUNNY   72  48  42 N8        30.18F
EAGLE          LGT RAIN  57  55  94 CALM      30.27S
RIFLE          LGT RAIN  63  57  81 NE5       30.18F
DELTA          PTSUNNY   79  50  36 S6        30.14F
NUCLA          PTSUNNY   68  50  52 E3        30.25S
$$

COZ017>023-064>068-071800-
...SOUTHWEST COLORADO...

CITY           SKY/WX    TMP DP  RH WIND       PRES   REMARKS
DURANGO        PTSUNNY   63  57  81 NE5       30.26F
CORTEZ         MOSUNNY   72  54  53 N8        30.20F
PAGOSA SPRINGS CLOUDY    54  53  98 CALM      30.35F
TELLURIDE      TSTM      53  48  83 NW6G24    30.40S
WOLF CREEK PAS NOT AVBL
$$

COZ009-010-012-014-032>034-037-058>063-071800-
...CENTRAL COLORADO...

CITY           SKY/WX    TMP DP  RH WIND       PRES   REMARKS
ASPEN          TSTM      55  50  83 CALM      30.30R
BUENA VISTA    CLOUDY    58  49  72 SE7       30.32F
COPPER MTN     CLOUDY    54  43  66 CALM      30.54S
BERTHOUD PASS  CLOUDY    41  32  70 NW5       30.57F
COTTONWOOD PAS NOT AVBL
GUNNISON       PTSUNNY   64  46  52 CALM      30.29F
KREMMLING      PTSUNNY   64  48  55 CALM      30.27F
LEADVILLE      MOSUNNY   58  44  60 S10G20    30.38F
MONARCH PASS   DRIZZLE   45  43  93 SW7       30.64F
SALIDA         CLOUDY    62  52  71 SE7G18    30.36F
SUNLIGHT       CLOUDY    46  45  93 CALM      30.50S
WILKERSON PASS FOG       46  46 100 SW8       30.52F VSB 1/4
$$

COZ069>075-071800-
...SAN LUIS VALLEY/SANGRE DE CRISTO MOUNTAINS...

CITY           SKY/WX    TMP DP  RH WIND       PRES   REMARKS
ALAMOSA        CLOUDY    59  54  83 CALM      30.31F
LA VETA PASS   RAIN      45  43  93 MISG      30.46S VSB 1/4
SAGUACHE       CLOUDY    59  52  77 SE5       30.33F
$$

COZ035-036-038>040-071800-
...NORTHERN COLORADO FRONT RANGE...

CITY           SKY/WX    TMP DP  RH WIND       PRES   REMARKS
DENVER INTL AP PTSUNNY   67  52  58 S18       30.18F HAZE
DMNS CITY PARK   N/A     67  53  60 E8        30.17F
AURORA         PTSUNNY   65  53  64 SE14G22   30.20F HAZE
FRONT RANGE AP PTSUNNY   63  52  67 S16G28    30.20F HAZE
ERIE MUNI ARPT CLOUDY    64  57  77 CALM      30.18S HAZE
BOULDER MUN AP CLOUDY    63  57  82 NW3       30.18F HAZE
CENTENNIAL     PTSUNNY   65  54  67 S21       30.20F HAZE
BROOMFIELD       N/A     63  57  82 NW5       30.21S FOG
FORT COLLINS   PTSUNNY   63  54  72 CALM      30.20S
LONGMONT       CLOUDY    67  57  69 CALM      30.20S HAZE
$$

COZ041-046-047-076>085-087-088-071800-
...PIKES PEAK/PALMER DIVIDE AND SOUTHERN FOOTHILLS...

CITY           SKY/WX    TMP DP  RH WIND       PRES   REMARKS
COLO. SPRINGS  CLOUDY    55  51  86 SE15      30.29F FOG
A. F. ACADEMY  CLOUDY    52  52  99 S12       30.29S FOG
ELLICOTT       CLOUDY   N/A N/A N/A S13       30.27F FOG
FALCON         CLOUDY    52  51  95 S12       30.32S FOG
FORT CARSON    FOG       56  52  86 S14       30.27S VSB 1
LIMON          PTSUNNY   63  51  65 SE13G20   30.25F HAZE
MONUMENT HILL  CLOUDY    52  50  93 MISG      30.29F FOG
TRINIDAD       CLOUDY    61  52  72 E7        30.27S HAZE
$$

COZ042>045-048>051-090-091-071800-
...NORTHEAST COLORADO...

CITY           SKY/WX    TMP DP  RH WIND       PRES   REMARKS
GREELEY ARPT   PTSUNNY   72  54  53 SE12G17   30.18F
AKRON          PTSUNNY   66  49  54 S17       30.21F
BURLINGTON     SUNNY     69  45  41 E14       30.23F
WRAY           PTSUNNY   72  47  40 E12G17    30.22F
STERLING       PTSUNNY   70  52  52 S16G23    30.18F
HOLYOKE        SUNNY     72  52  49 SE9G18    30.21F
FORT MORGAN    PTSUNNY   68  50  51 SE13G18   30.20F
$$

COZ086-089-092>099-071800-
...SOUTHEAST COLORADO...

CITY           SKY/WX    TMP DP  RH WIND       PRES   REMARKS
PUEBLO         CLOUDY    63  53  70 SE10      30.23F HAZE
LA JUNTA       PTSUNNY   69  51  52 E13       30.21F HAZE
LAMAR          MOSUNNY   70  50  49 E9        30.19F HAZE
SPRINGFIELD      N/A     66  52  60 NE8       30.22S
$$



USA.gov is the U.S. government's official web portal to all federal, state and local government web resources and services.